TimeMDT,TemperatureF,Dew PointF,Humidity,Sea Level PressureIn,VisibilityMPH,Wind Direction,Wind SpeedMPH,Gust SpeedMPH,PrecipitationIn,Events,Conditions,WindDirDegrees,DateUTC
12:52 AM,57.0,35.1,44,29.64,10.0,SW,3.5,-,N/A,,Clear,230,2013-09-30 06:52:00
1:52 AM,54.0,36.0,51,29.64,10.0,Calm,Calm,-,N/A,,Clear,0,2013-09-30 07:52:00
2:52 AM,57.0,37.0,47,29.62,10.0,WNW,9.2,-,N/A,,Clear,300,2013-09-30 08:52:00
3:52 AM,54.0,36.0,51,29.63,10.0,WNW,5.8,-,N/A,,Clear,300,2013-09-30 09:52:00
4:52 AM,55.9,36.0,47,29.63,10.0,Calm,Calm,-,N/A,,Clear,0,2013-09-30 10:52:00
5:52 AM,48.9,35.1,59,29.65,10.0,Calm,Calm,-,N/A,,Clear,0,2013-09-30 11:52:00
6:52 AM,46.9,36.0,66,29.66,10.0,Calm,Calm,-,N/A,,Clear,0,2013-09-30 12:52:00
7:52 AM,52.0,39.0,61,29.65,10.0,SE,3.5,-,N/A,,Clear,130,2013-09-30 13:52:00
8:52 AM,59.0,39.9,49,29.61,10.0,SE,6.9,-,N/A,,Clear,140,2013-09-30 14:52:00
9:52 AM,71.1,41.0,34,29.59,10.0,South,9.2,-,N/A,,Clear,180,2013-09-30 15:52:00
10:52 AM,73.9,37.0,26,29.56,10.0,SW,10.4,-,N/A,,Clear,230,2013-09-30 16:52:00
11:52 AM,75.0,36.0,24,29.53,10.0,WSW,18.4,26.5,N/A,,Clear,250,2013-09-30 17:52:00
12:52 PM,82.0,36.0,19,29.49,10.0,West,13.8,-,N/A,,Clear,260,2013-09-30 18:52:00
1:52 PM,87.1,34.0,15,29.46,10.0,West,18.4,28.8,N/A,,Clear,260,2013-09-30 19:52:00
2:52 PM,86.0,35.1,16,29.45,10.0,West,26.5,39.1,N/A,,Clear,270,2013-09-30 20:52:00
3:52 PM,86.0,36.0,17,29.44,10.0,West,24.2,32.2,N/A,,Clear,280,2013-09-30 21:52:00
4:52 PM,84.9,35.1,17,29.46,10.0,West,21.9,33.4,N/A,,Clear,270,2013-09-30 22:52:00
5:52 PM,82.0,34.0,18,29.53,10.0,NW,16.1,29.9,N/A,,Partly Cloudy,310,2013-09-30 23:52:00
6:03 PM,62.6,46.4,55,29.61,10.0,NNW,46.0,63.3,N/A,,Partly Cloudy,340,2013-10-01 00:03:00
6:52 PM,57.0,46.0,67,29.68,10.0,NNW,39.1,51.8,N/A,,Partly Cloudy,340,2013-10-01 00:52:00
7:52 PM,55.0,41.0,59,29.73,10.0,NNW,25.3,36.8,N/A,,Clear,340,2013-10-01 01:52:00
8:52 PM,54.0,39.0,57,29.77,10.0,NNW,13.8,23.0,N/A,,Clear,330,2013-10-01 02:52:00
9:52 PM,52.0,35.1,53,29.76,10.0,NNW,10.4,-,N/A,,Clear,330,2013-10-01 03:52:00
10:52 PM,53.1,32.0,45,29.76,10.0,NNW,6.9,-,N/A,,Clear,340,2013-10-01 04:52:00
11:52 PM,57.9,28.0,32,29.79,10.0,WNW,12.7,23.0,N/A,,Clear,300,2013-10-01 05:52:00